Weather History for KOXC - April, 2013

Change the Weather History Date:

Wednesday, April 24, 2013

  Actual Average Record
Temperature  
Mean Temperature 55 °F -  
Max Temperature 69 °F 58 °F 82 °F (2001)
Min Temperature 41 °F 38 °F 26 °F (2002)
Degree Days  
Heating Degree Days 10    
Growing Degree Days 5 (Base 50)    
Moisture  
Dew Point 40 °F    
Average Humidity 74    
Maximum Humidity 87    
Minimum Humidity 43    
Precipitation  
Precipitation 0.00 in - - ()
Sea Level Pressure  
Sea Level Pressure 29.98 in    
Wind  
Wind Speed 11 mph (NW)    
Max Wind Speed 15 mph    
Max Gust Speed 21 mph    
Visibility 9 miles    
Events      
Averages and records for this station are not official NWS values.
T = Trace of Precipitation, MM = Missing Value Source: NWS Daily Summary

Daily Weather History Graph

Daily Weather History Graph

Search for Another Location

Airport or City:

Trip Planner

Search our weather history database for the weather conditions in past years. The results will help you decide how hot, cold, wet, or windy it might be!

Date:

Astronomy

Apr. 24, 2013 Rise Set
Actual Time 5:58 AM EDT 7:42 PM EDT
Civil Twilight 5:29 AM EDT 8:12 PM EDT
Nautical Twilight 4:53 AM EDT 8:48 PM EDT
Astronomical Twilight 4:15 AM EDT 9:26 PM EDT
Moon 6:42 PM EDT (4/24) 5:01 AM EDT (4/24)
Length of Visible Light 14h 43m
Length of Day
13h 44m
Waxing Gibbous, 98% of the Moon is Illuminated
Apr 24
Waxing Gibbous
Apr 25
Full
May 2
Last Quarter
May 9
New
May 18
First Quarter

Hourly Weather History & Observations

Time (EDT) Temp. Windchill Dew Point Humidity Pressure Visibility Wind Dir Wind Speed Gust Speed Precip Events Conditions
12:15 AM 41.0 °F 33.5 °F 35.6 °F 81% 30.09 in 10.0 mi NNE 13.8 mph - N/A   Overcast
12:35 AM 41.0 °F 34.3 °F 35.6 °F 81% 30.09 in 10.0 mi North 11.5 mph 18.4 mph N/A   Overcast
12:55 AM 42.8 °F 36.2 °F 35.6 °F 76% 30.08 in 10.0 mi NNE 12.7 mph 18.4 mph N/A   Overcast
1:15 AM 42.8 °F 35.8 °F 35.6 °F 76% 30.07 in 10.0 mi NNE 13.8 mph - N/A   Overcast
1:35 AM 42.8 °F 37.0 °F 35.6 °F 76% 30.07 in 10.0 mi North 10.4 mph 17.3 mph N/A   Overcast
1:55 AM 42.8 °F 37.0 °F 35.6 °F 76% 30.05 in 10.0 mi North 10.4 mph - N/A   Overcast
2:15 AM 42.8 °F 35.8 °F 35.6 °F 76% 30.04 in 10.0 mi NNE 13.8 mph - N/A   Overcast
2:35 AM 42.8 °F 35.4 °F 35.6 °F 76% 30.03 in 10.0 mi NNE 15.0 mph - N/A   Overcast
3:15 AM 42.8 °F 37.0 °F 35.6 °F 76% 30.03 in 10.0 mi North 10.4 mph - N/A   Overcast
3:35 AM 42.8 °F 37.0 °F 35.6 °F 76% 30.04 in 10.0 mi NNW 10.4 mph - N/A   Overcast
3:55 AM 42.8 °F 36.2 °F 35.6 °F 76% 30.04 in 10.0 mi North 12.7 mph - N/A   Overcast
4:35 AM 42.8 °F 37.0 °F 35.6 °F 76% 30.02 in 10.0 mi North 10.4 mph - N/A   Overcast
4:55 AM 42.8 °F 38.0 °F 35.6 °F 76% 30.02 in 10.0 mi North 8.1 mph - N/A   Overcast
5:15 AM 42.8 °F 38.0 °F 35.6 °F 76% 30.02 in 10.0 mi NNW 8.1 mph - N/A   Overcast
5:55 AM 42.8 °F 38.6 °F 35.6 °F 76% 30.03 in 10.0 mi NNW 6.9 mph - N/A   Overcast
6:21 AM 42.8 °F 37.5 °F 35.6 °F 76% 30.04 in 10.0 mi NNW 9.2 mph - N/A   Mostly Cloudy
6:45 AM 42.8 °F 38.6 °F 35.6 °F 76% 30.05 in 10.0 mi NNW 6.9 mph - N/A   Scattered Clouds
7:45 AM 44.6 °F 40.7 °F 37.4 °F 76% 30.05 in 10.0 mi NNW 6.9 mph - N/A   Partly Cloudy
8:45 AM 48.2 °F - 39.2 °F 71% 30.04 in 10.0 mi NNW 6.9 mph - N/A   Clear
9:45 AM 51.8 °F - 39.2 °F 62% 30.02 in 10.0 mi NW 5.8 mph - N/A   Clear
10:45 AM 55.4 °F - 42.8 °F 63% 30.00 in 10.0 mi WSW 5.8 mph - N/A   Clear
12:45 PM 62.6 °F - 44.6 °F 52% 29.96 in 10.0 mi West 5.8 mph - N/A   Clear
1:45 PM 66.2 °F - 44.6 °F 46% 29.92 in 10.0 mi SW 8.1 mph - N/A   Clear
2:45 PM 69.8 °F - 46.4 °F 43% 29.91 in 10.0 mi SSW 8.1 mph - N/A   Clear
3:50 PM 68.0 °F - 48.2 °F 49% 29.89 in 10.0 mi WNW 12.7 mph 18.4 mph N/A   Clear
4:45 PM 64.4 °F - 48.2 °F 56% 29.89 in 10.0 mi SSW 11.5 mph 19.6 mph N/A   Clear
5:45 PM 60.8 °F - 46.4 °F 59% 29.90 in 10.0 mi SSW 15.0 mph 18.4 mph N/A   Clear
6:45 PM 55.4 °F - 46.4 °F 72% 29.87 in 10.0 mi SSW 9.2 mph - N/A   Clear
7:50 PM 48.2 °F - 42.8 °F 82% 29.87 in 4.0 mi South 13.8 mph 20.7 mph N/A   Mostly Cloudy
8:45 PM 48.2 °F - 44.6 °F 87% 29.91 in 1.0 mi SSW 11.5 mph 17.3 mph N/A   Overcast
9:15 PM 48.2 °F - 44.6 °F 87% 29.90 in 4.0 mi South 10.4 mph 16.1 mph N/A   Overcast
9:35 PM 48.2 °F - 44.6 °F 87% 29.90 in 5.0 mi South 8.1 mph - N/A   Overcast
9:55 PM 48.2 °F - 44.6 °F 87% 29.89 in 5.0 mi South 10.4 mph - N/A   Overcast
10:55 PM 50.0 °F - 46.4 °F 87% 29.89 in 6.0 mi SSW 6.9 mph - N/A   Overcast
11:15 PM 50.0 °F - 46.4 °F 87% 29.89 in 6.0 mi South 10.4 mph 16.1 mph N/A   Overcast
11:35 PM 50.0 °F - 46.4 °F 87% 29.88 in 6.0 mi SSW 11.5 mph 17.3 mph N/A   Overcast
11:55 PM 50.0 °F - 46.4 °F 87% 29.88 in 6.0 mi SSW 9.2 mph 18.4 mph N/A   Overcast